OHDAC EFPO-EFKK

Flight info

Callsign OHDAC
Flight time N/A
Altitude 8000
Route OSDIL DCT DIVEG T255 ATPEL
Aircraft DA42/L-SBDGRY/S

Departure

Time 2026-04-27 13:39
Airport Pori Airport (EFPO)

Arrival

Time N/A
Airport Kokkola-Pietarsaari Airport (EFKK)
Time Latitude Longitude Altitude Speed Heading
2026-04-27 13:29 61.46021 21.78630 42 ft 0 kts 310°
2026-04-27 13:36 61.46057 21.78669 42 ft 17 kts 50°
2026-04-27 13:36 61.46037 21.78821 42 ft 18 kts 120°
2026-04-27 13:37 61.46053 21.79022 41 ft 16 kts 43°
2026-04-27 13:37 61.46131 21.79179 40 ft 14 kts 41°
2026-04-27 13:37 61.46212 21.79341 40 ft 20 kts 49°
2026-04-27 13:37 61.46349 21.79468 40 ft 15 kts 309°
2026-04-27 13:38 61.46378 21.79385 40 ft 0 kts 306°
2026-04-27 13:38 61.46397 21.79331 41 ft 26 kts 308°
2026-04-27 13:39 61.46627 21.78672 149 ft 66 kts 304°
2026-04-27 13:39 61.46889 21.77851 466 ft 70 kts 306°
2026-04-27 13:39 61.47092 21.77054 870 ft 63 kts 303°
2026-04-27 13:39 61.47447 21.76576 1099 ft 69 kts 352°
2026-04-27 13:40 61.47942 21.76662 1308 ft 74 kts
2026-04-27 13:40 61.48443 21.76886 1544 ft 75 kts
2026-04-27 13:40 61.48474 21.76902 1564 ft 74 kts
2026-04-27 13:40 61.48844 21.77099 1770 ft 71 kts
2026-04-27 13:41 61.49305 21.77395 2008 ft 70 kts
2026-04-27 13:41 61.49767 21.77717 2225 ft 70 kts 11°
2026-04-27 13:41 61.50224 21.78052 2443 ft 70 kts 11°
2026-04-27 13:41 61.50680 21.78406 2665 ft 70 kts 12°
2026-04-27 13:42 61.51295 21.78897 3007 ft 74 kts 12°
2026-04-27 13:42 61.51608 21.79153 3289 ft 72 kts 13°
2026-04-27 13:42 61.52056 21.79525 3667 ft 70 kts 13°
2026-04-27 13:42 61.52494 21.79892 4030 ft 69 kts 13°
2026-04-27 13:43 61.53086 21.80386 4504 ft 69 kts 12°
2026-04-27 13:43 61.53378 21.80634 4747 ft 69 kts 13°
2026-04-27 13:43 61.53957 21.81121 5222 ft 69 kts 13°
2026-04-27 13:43 61.54391 21.81489 5581 ft 68 kts 12°
2026-04-27 13:44 61.54677 21.81730 5821 ft 68 kts 13°
2026-04-27 13:44 61.55106 21.82093 6176 ft 68 kts 12°
2026-04-27 13:44 61.55543 21.82461 6535 ft 68 kts 12°
2026-04-27 13:44 61.55969 21.82824 6888 ft 68 kts 12°
2026-04-27 13:45 61.56402 21.83191 7235 ft 69 kts 13°
2026-04-27 13:45 61.56838 21.83563 7601 ft 68 kts 12°
2026-04-27 13:45 61.57279 21.83932 7876 ft 76 kts 13°
2026-04-27 13:45 61.58070 21.84586 7934 ft 106 kts 15°
2026-04-27 13:46 61.58558 21.85002 7928 ft 117 kts 16°
2026-04-27 13:46 61.59339 21.85677 7919 ft 127 kts 17°
2026-04-27 13:46 61.60174 21.86399 7914 ft 132 kts 16°
2026-04-27 13:46 61.61044 21.87149 7908 ft 135 kts 17°
2026-04-27 13:47 61.61917 21.87899 7906 ft 137 kts 17°
2026-04-27 13:47 61.62809 21.88663 7905 ft 138 kts 16°
2026-04-27 13:47 61.63696 21.89422 7907 ft 138 kts 17°
2026-04-27 13:47 61.64891 21.90446 7907 ft 139 kts 17°
2026-04-27 13:48 61.65489 21.90956 7904 ft 139 kts 17°
2026-04-27 13:48 61.66388 21.91725 7902 ft 139 kts 16°
2026-04-27 13:48 61.67284 21.92494 7897 ft 139 kts 17°
2026-04-27 13:48 61.68176 21.93257 7896 ft 139 kts 17°
2026-04-27 13:49 61.69065 21.94019 7899 ft 138 kts 17°
2026-04-27 13:49 61.69960 21.94781 7901 ft 138 kts 17°
2026-04-27 13:49 61.70842 21.95537 7907 ft 137 kts 18°
2026-04-27 13:49 61.72060 21.95832 7911 ft 134 kts 356°
2026-04-27 13:50 61.72982 21.95718 8048 ft 126 kts 355°
2026-04-27 13:50 61.73565 21.95610 8153 ft 123 kts 354°
2026-04-27 13:50 61.74411 21.95453 8276 ft 122 kts 355°
2026-04-27 13:50 61.75251 21.95294 8400 ft 121 kts 355°
2026-04-27 13:51 61.76089 21.95138 8504 ft 121 kts 355°
2026-04-27 13:51 61.76928 21.94978 8614 ft 121 kts 354°
2026-04-27 13:51 61.77763 21.94814 8728 ft 121 kts 354°
2026-04-27 13:51 61.78885 21.94785 8884 ft 121 kts
2026-04-27 13:52 61.79434 21.94943 8945 ft 122 kts
2026-04-27 13:52 61.80558 21.95290 9091 ft 122 kts
2026-04-27 13:52 61.81124 21.95479 9166 ft 122 kts
2026-04-27 13:52 61.81966 21.95760 9277 ft 122 kts
2026-04-27 13:53 61.83644 21.96338 9495 ft 122 kts
2026-04-27 13:53 61.84492 21.96637 9592 ft 122 kts
2026-04-27 13:53 61.85336 21.96923 9702 ft 122 kts
2026-04-27 13:54 61.86458 21.97313 9843 ft 123 kts
2026-04-27 13:54 61.87015 21.97512 9876 ft 125 kts